Hourly Data Report for May 19, 2012

All times are specified in Local Standard Time (LST). Add 1 hour to adjust for Daylight Saving Time where and when it is observed.

SAULT STE MARIE A
ONTARIO

46°29'06.000" N
84°30'35.000" W
192.00 m
6057591
71260
YAM

Download Data

Hourly Data (May 2012)
Hourly Data Report for May 19, 2012
Temp Definition
°C
Dew Point Temp Definition
°C
Rel Hum Definition
%
Wind Dir Definition
10's deg

Wind Spd Definition
km/h
Visibility Definition
km
Stn Press Definition
kPa
Hmdx Definition


Wind Chill Definition


Weather Definition


TIME
00:00 Legend Double Dagger 10.6 6.0 73 8 13 10.0 99.46     LegendNANA
01:00 Legend Double Dagger 10.1 5.9 75 9 9 10.0 99.48     Clear
02:00 Legend Double Dagger 10.4 5.4 71 8 14 10.0 99.43     LegendNANA
03:00 Legend Double Dagger 9.6 5.4 75 9 11 10.0 99.42     LegendNANA
04:00 Legend Double Dagger 9.2 4.8 74 9 10 10.0 99.44     Mainly Clear
05:00 Legend Double Dagger 8.3 4.9 79 8 11 10.0 99.46     LegendNANA
06:00 Legend Double Dagger 10.2 4.8 69 9 12 10.0 99.49     LegendNANA
07:00 Legend Double Dagger 12.3 5.5 63 7 12 10.0 99.55     Mainly Clear
08:00 Legend Double Dagger 13.9 6.3 60 7 13 10.0 99.54     LegendNANA
09:00 Legend Double Dagger 17.3 8.8 57 6 13 10.0 99.55     LegendNANA
10:00 Legend Double Dagger 21.2 9.9 48 11 10 10.0 99.53     Mainly Clear
11:00 Legend Double Dagger 25.3 9.4 36 17 9 10.0 99.50 26   LegendNANA
12:00 Legend Double Dagger 26.9 10.8 36 20 8 10.0 99.47 29   LegendNANA
13:00 Legend Double Dagger 28.9 11.7 34 19 9 10.0 99.42 31   Mainly Clear
14:00 Legend Double Dagger 29.8 10.2 29 18 12 10.0 99.39 31   LegendNANA
15:00 Legend Double Dagger 29.4 10.3 30 18 15 10.0 99.38 31   LegendNANA
16:00 Legend Double Dagger 29.5 11.4 32 17 13 10.0 99.35 31   Mainly Clear
17:00 Legend Double Dagger 28.4 11.7 35 20 13 10.0 99.34 31   LegendNANA
18:00 Legend Double Dagger 26.5 8.7 32 13 16 10.0 99.33 27   LegendNANA
19:00 Legend Double Dagger 24.7 6.7 31 13 12 10.0 99.32 25   Mainly Clear
20:00 Legend Double Dagger 21.3 8.0 42 10 12 10.0 99.34     LegendNANA
21:00 Legend Double Dagger 18.2 6.8 47 10 8 10.0 99.42     LegendNANA
22:00 Legend Double Dagger 16.2 7.2 55 9 10 10.0 99.44     Clear
23:00 Legend Double Dagger 14.7 7.3 61 9 8 10.0 99.45     LegendNANA

Notes on Data Quality.

Legend

  • E = Estimated
  • M = Missing
  • NA = Not Available
  • ‡ = Partner data that is not subject to review by the National Climate Archives
Date modified: